JA321B RJFK-RJFC

Flight info

Callsign JA321B
Flight time 0h 23m
Altitude 10000
Route MIZOB1 HKC Y145 ONSKE DCT
Aircraft HDJT/L-SABDGRWY/H

Departure

Time 2026-05-01 12:21
Airport Kagoshima Airport (RJFK)

Arrival

Time 2026-05-01 12:45
Airport Yakushima Airport (RJFC)
Time Latitude Longitude Altitude Speed Heading
2026-05-01 12:04 31.79743 130.71959 885 ft 0 kts 148°
2026-05-01 12:15 31.79741 130.71961 885 ft 1 kts 138°
2026-05-01 12:16 31.79749 130.71968 885 ft 3 kts 324°
2026-05-01 12:16 31.79777 130.71945 885 ft 5 kts 352°
2026-05-01 12:16 31.79811 130.71978 885 ft 9 kts 58°
2026-05-01 12:16 31.79833 130.72026 886 ft 5 kts 64°
2026-05-01 12:17 31.79834 130.72057 886 ft 6 kts 120°
2026-05-01 12:17 31.79793 130.72088 886 ft 10 kts 150°
2026-05-01 12:17 31.79735 130.72127 886 ft 10 kts 149°
2026-05-01 12:17 31.79668 130.72171 886 ft 10 kts 150°
2026-05-01 12:18 31.79610 130.72209 886 ft 9 kts 152°
2026-05-01 12:18 31.79552 130.72246 886 ft 9 kts 151°
2026-05-01 12:18 31.79505 130.72276 886 ft 7 kts 147°
2026-05-01 12:18 31.79487 130.72323 887 ft 6 kts 88°
2026-05-01 12:19 31.79504 130.72378 890 ft 6 kts 59°
2026-05-01 12:19 31.79508 130.72385 890 ft 0 kts 57°
2026-05-01 12:19 31.79510 130.72388 890 ft 3 kts 57°
2026-05-01 12:19 31.79531 130.72432 895 ft 5 kts 60°
2026-05-01 12:20 31.79565 130.72455 896 ft 6 kts 354°
2026-05-01 12:20 31.79595 130.72441 896 ft 2 kts 328°
2026-05-01 12:20 31.79777 130.72316 895 ft 68 kts 330°
2026-05-01 12:21 31.80412 130.71882 947 ft 138 kts 330°
2026-05-01 12:21 31.81420 130.71219 1360 ft 188 kts 330°
2026-05-01 12:21 31.82642 130.70428 2343 ft 211 kts 330°
2026-05-01 12:21 31.83987 130.69544 3338 ft 230 kts 329°
2026-05-01 12:22 31.85334 130.68426 4322 ft 245 kts 312°
2026-05-01 12:22 31.85935 130.67299 4987 ft 246 kts 291°
2026-05-01 12:22 31.85903 130.64628 6492 ft 256 kts 255°
2026-05-01 12:22 31.84865 130.62864 7469 ft 273 kts 231°
2026-05-01 12:23 31.83373 130.61419 8376 ft 287 kts 217°
2026-05-01 12:23 31.81425 130.60677 9202 ft 307 kts 191°
2026-05-01 12:23 31.79242 130.60700 9948 ft 319 kts 181°
2026-05-01 12:23 31.76951 130.60848 10011 ft 335 kts 183°
2026-05-01 12:24 31.74636 130.60864 10001 ft 333 kts 186°
2026-05-01 12:24 31.72311 130.60824 9989 ft 335 kts 185°
2026-05-01 12:24 31.70762 130.60833 9991 ft 336 kts 184°
2026-05-01 12:24 31.68424 130.60896 9995 ft 338 kts 184°
2026-05-01 12:25 31.66081 130.60942 9994 ft 337 kts 185°
2026-05-01 12:25 31.61399 130.60961 9991 ft 336 kts 185°
2026-05-01 12:25 31.59062 130.60994 9994 ft 336 kts 184°
2026-05-01 12:26 31.56725 130.61025 9993 ft 335 kts 185°
2026-05-01 12:26 31.52062 130.61073 9993 ft 335 kts 185°
2026-05-01 12:26 31.49758 130.61097 9992 ft 335 kts 184°
2026-05-01 12:27 31.47413 130.61133 9991 ft 334 kts 184°
2026-05-01 12:27 31.42749 130.61170 9993 ft 334 kts 185°
2026-05-01 12:28 31.38123 130.61236 9993 ft 334 kts 185°
2026-05-01 12:28 31.35793 130.61252 9992 ft 334 kts 185°
2026-05-01 12:28 31.31144 130.61309 9993 ft 334 kts 185°
2026-05-01 12:29 31.28822 130.61332 9993 ft 334 kts 185°
2026-05-01 12:29 31.26495 130.61354 9994 ft 334 kts 185°
2026-05-01 12:29 31.21854 130.61414 9992 ft 332 kts 185°
2026-05-01 12:30 31.17225 130.61467 9992 ft 332 kts 182°
2026-05-01 12:30 31.14905 130.61629 9992 ft 335 kts 181°
2026-05-01 12:30 31.12581 130.61787 9992 ft 334 kts 182°
2026-05-01 12:31 31.10261 130.61911 9993 ft 334 kts 182°
2026-05-01 12:31 31.07941 130.62044 9993 ft 333 kts 182°
2026-05-01 12:31 31.05620 130.62189 9994 ft 334 kts 181°
2026-05-01 12:31 31.03300 130.62337 9993 ft 334 kts 182°
2026-05-01 12:32 31.00981 130.62477 9995 ft 333 kts 182°
2026-05-01 12:32 30.96341 130.62753 9993 ft 334 kts 182°
2026-05-01 12:32 30.94019 130.62895 9993 ft 333 kts 182°
2026-05-01 12:33 30.91712 130.63034 9994 ft 332 kts 182°
2026-05-01 12:33 30.89427 130.63175 9994 ft 333 kts 182°
2026-05-01 12:33 30.87121 130.63311 9993 ft 332 kts 182°
2026-05-01 12:33 30.84812 130.63450 9993 ft 332 kts 182°
2026-05-01 12:34 30.82502 130.63591 9993 ft 333 kts 182°
2026-05-01 12:34 30.80190 130.63729 9994 ft 332 kts 182°
2026-05-01 12:34 30.77882 130.63868 9994 ft 332 kts 182°
2026-05-01 12:34 30.75568 130.64009 9994 ft 333 kts 182°
2026-05-01 12:35 30.73255 130.64151 9996 ft 332 kts 182°
2026-05-01 12:35 30.70950 130.64290 9995 ft 331 kts 181°
2026-05-01 12:35 30.68645 130.64425 9994 ft 332 kts 182°
2026-05-01 12:35 30.66345 130.64561 9994 ft 332 kts 182°
2026-05-01 12:36 30.64035 130.64713 9997 ft 333 kts 179°
2026-05-01 12:36 30.61757 130.65319 9888 ft 341 kts 164°
2026-05-01 12:36 30.59601 130.66491 9499 ft 341 kts 153°
2026-05-01 12:36 30.57556 130.67849 9058 ft 337 kts 153°
2026-05-01 12:37 30.55504 130.69129 8613 ft 326 kts 154°
2026-05-01 12:37 30.53565 130.70317 8185 ft 305 kts 154°
2026-05-01 12:37 30.51737 130.71480 7790 ft 296 kts 153°
2026-05-01 12:37 30.49968 130.72611 7408 ft 292 kts 153°
2026-05-01 12:38 30.48199 130.73722 7026 ft 288 kts 153°
2026-05-01 12:38 30.46450 130.74822 6643 ft 284 kts 153°
2026-05-01 12:38 30.44723 130.75911 6266 ft 281 kts 153°
2026-05-01 12:38 30.43017 130.76984 5894 ft 277 kts 153°
2026-05-01 12:39 30.41337 130.78044 5527 ft 270 kts 153°
2026-05-01 12:39 30.39761 130.79041 5177 ft 247 kts 153°
2026-05-01 12:39 30.38306 130.79956 4857 ft 230 kts 153°
2026-05-01 12:39 30.36854 130.80864 4552 ft 247 kts 153°
2026-05-01 12:40 30.35344 130.81810 4230 ft 245 kts 153°
2026-05-01 12:40 30.33771 130.82528 3896 ft 242 kts 174°
2026-05-01 12:40 30.32176 130.82323 3581 ft 221 kts 204°
2026-05-01 12:40 30.30922 130.81474 3298 ft 201 kts 225°
2026-05-01 12:41 30.30088 130.80230 3042 ft 194 kts 246°
2026-05-01 12:41 30.29705 130.78759 2800 ft 190 kts 265°
2026-05-01 12:41 30.29786 130.77253 2551 ft 188 kts 285°
2026-05-01 12:41 30.30316 130.75880 2302 ft 189 kts 304°
2026-05-01 12:42 30.31186 130.74774 2055 ft 181 kts 314°
2026-05-01 12:42 30.32029 130.73772 1819 ft 171 kts 312°
2026-05-01 12:42 30.32824 130.72804 1596 ft 163 kts 313°
2026-05-01 12:42 30.33576 130.71910 1416 ft 141 kts 311°
2026-05-01 12:43 30.34226 130.71143 1193 ft 124 kts 315°
2026-05-01 12:43 30.34812 130.70485 1056 ft 116 kts 316°
2026-05-01 12:43 30.35375 130.69810 922 ft 116 kts 310°
2026-05-01 12:43 30.35921 130.69114 799 ft 119 kts 312°
2026-05-01 12:44 30.36488 130.68428 580 ft 114 kts 312°
2026-05-01 12:44 30.37009 130.67790 425 ft 105 kts 312°
2026-05-01 12:44 30.38059 130.66524 154 ft 112 kts 313°
2026-05-01 12:45 30.38797 130.65644 117 ft 21 kts 328°
2026-05-01 12:45 30.38820 130.65606 115 ft 5 kts 154°
2026-05-01 12:45 30.38793 130.65636 115 ft 6 kts 134°
2026-05-01 12:46 30.38740 130.65700 118 ft 17 kts 133°
2026-05-01 12:46 30.38641 130.65820 117 ft 24 kts 134°
2026-05-01 12:46 30.38527 130.65958 117 ft 23 kts 133°
2026-05-01 12:46 30.38445 130.66005 114 ft 11 kts 201°
2026-05-01 12:47 30.38399 130.65956 115 ft 8 kts 243°
2026-05-01 12:47 30.38386 130.65912 115 ft 2 kts 273°
2026-05-01 12:47 30.38396 130.65903 115 ft 0 kts